User: anonymous   Login
Location: Utrecht
(52.0830°N, 5.1330°E)
Time: 05:28:45
(UTC+01:00)
Language:

Cosmos 1092 Rocket - Orbit

View from above orbital plane
View from above orbital plane
View from above satellite
View from above satellite

Ground track
Ground track

The orbit data is extracted from the following two-line orbital elements,

1 11327U 79030B   17054.51354109  .00000095  00000-0  80399-4 0  9995
2 11327  82.9509  20.2563 0028595 135.6277 356.2996 13.76968334903492
Epoch (UTC): 23 February 2017 12:19:29
Eccentricity: 0.0028595
inclination: 82.9509°
perigee height: 953 km
apogee height: 995 km
right ascension of ascending node: 20.2563°
argument of perigee: 135.6277°
revolutions per day: 13.76968334
mean anomaly at epoch: 356.2996°
orbit number at epoch: 90349

The dashed part of the orbit path shows where the satellite is in the earth's shadow,  

DLR